Regional Weather Roundup
Issued by NWS Raleigh/Durham, NC

Current Version | Previous Version | Graphics & Text | Print | Product List | Glossary On
Versions: 1 2 3 4 5 6 7 8 9 10 11 12 13 14 15 16 17 18 19 20 21 22 23 24 25 26 27 28 29 30 31 32 33 34 35 36 37 38 39 40 41 42 43 44 45 46 47 48 49
000
ASUS42 KRAH 261110
RWRRAH
NORTH CAROLINA WEATHER ROUNDUP
NATIONAL WEATHER SERVICE RALEIGH NC
700 AM EDT SUN APR 26 2015

NOTE: "FAIR" INDICATES FEW OR NO CLOUDS BELOW 12,000 FEET WITH NO
SIGNIFICANT WEATHER AND/OR OBSTRUCTIONS TO VISIBILITY.

NCZ001-053-055-056-065-067-261200-
WESTERN NORTH CAROLINA

CITY           SKY/WX    TMP DP  RH WIND       PRES   REMARKS
ASHEVILLE      CLEAR     55  53  93 CALM      29.62R
JEFFERSON      RAIN      54  53  94 NW7       29.59R
MORGANTON      FOG       48  48 100 CALM      29.65R VSB 1/2
HICKORY        FOG       47  46  97 E3        29.61R VSB 1/4
RUTHERFORDTON  FOG       51  51 100 CALM      29.60R VSB<1/4
MOUNT AIRY       N/A     44  42  91 NE6       29.65R
BOONE          CLOUDY    55  53  90 W9G18     29.60R
$$

NCZ021-022-025-041-071-084-088-261200-
CENTRAL NORTH CAROLINA

CITY           SKY/WX    TMP DP  RH WIND       PRES   REMARKS
CHARLOTTE      DRZL/FOG  49  47  93 N7        29.61R VSB 1/2
GREENSBORO     DRIZZLE   43  42  97 N8        29.63R FOG
WINSTON-SALEM  CLOUDY    43  41  93 NE8       29.65R FOG
RALEIGH-DURHAM CLOUDY    46  45  93 NE5       29.63R FOG
FORT BRAGG     CLOUDY    49  48  97 N7        29.59R
FAYETTEVILLE   CLOUDY    51  50  96 N14       29.59R FOG
BURLINGTON     CLOUDY    45  43  93 N8        29.63R FOG
LAURINBURG     CLOUDY    53  52  96 N10       29.59R FOG
$$

NCZ011-015-027-028-043-044-047-080-103-261200-
NORTHEASTERN NORTH CAROLINA

CITY           SKY/WX    TMP DP  RH WIND       PRES   REMARKS
ROCKY MT-WILSO CLOUDY    48  47  96 NE6       29.62R FOG
GREENVILLE     CLOUDY    48  48 100 NE7       29.64S FOG
WASHINGTON     LGT RAIN  49  48  97 NE8       29.60S
ELIZABETH CITY CLOUDY    48  45  89 N17       29.61S
MANTEO         CLOUDY    48  47  96 NE17G24   29.58F
CAPE HATTERAS  CLOUDY    51  51 100 NE10G20   29.57R
$$

NCZ078-087-090-091-093-098-101-261200-
SOUTHEASTERN NORTH CAROLINA

CITY           SKY/WX    TMP DP  RH WIND       PRES   REMARKS
LUMBERTON      CLOUDY    59  57  93 N5        29.56R FOG
GOLDSBORO      CLOUDY    48  48 100 VRB5      29.58R FOG
KINSTON        CLOUDY    48  48 100 N6        29.60R FOG
KENANSVILLE    CLOUDY    50  50  98 N9        29.60R FOG
NEW BERN       CLOUDY    53  52  96 NE8       29.59R FOG
CHERRY POINT   CLOUDY    55  54  96 NE10      29.58R FOG
BEAUFORT       LGT RAIN  56  56 100 NE10      29.57R
JACKSONVILLE   CLOUDY    56  54  93 N9        29.57R FOG
WILMINGTON     CLOUDY    62  61  96 NE8       29.55R FOG
$$




USA.gov is the U.S. government's official web portal to all federal, state and local government web resources and services.